GW1454 Weather Reports


Display with metric or nautical units.
time (UTC)temp
F
wind
direction
speed
MPH
gust
MPH
rain 1hr
in
rain 24hr
in
rain mn
in
humidity
%
barometer
mb
20260506044553 64 87 1.0 3.0 0.00 0.00 0.00 65 1014.4
20260506044044 64 123 0.0 5.0 0.00 0.00 0.00 64 1014.3
20260506043544 65 328 1.0 5.0 0.00 0.00 0.00 64 1014.3
20260506043052 65 82 1.0 6.0 0.00 0.00 0.00 63 1014.3
20260506042544 65 107 2.0 10.0 0.00 0.00 0.00 63 1014.3
20260506042046 66 261 1.0 10.0 0.00 0.00 0.00 62 1014.3
20260506041557 66 336 2.0 10.0 0.00 0.00 0.00 62 1014.4
20260506041044 66 305 3.0 10.0 0.00 0.00 0.00 61 1014.4
20260506040544 66 107 4.0 10.0 0.00 0.00 0.00 61 1014.4
20260506040058 66 317 2.0 9.0 0.00 0.00 0.00 61 1014.3
20260506035545 66 66 2.0 10.0 0.00 0.00 0.00 60 1014.2
20260506035046 66 61 1.0 10.0 0.00 0.00 0.00 60 1014.2
20260506034557 66 282 3.0 10.0 0.00 0.00 0.00 60 1014.2
20260506034045 65 111 1.0 9.0 0.00 0.00 0.00 60 1014.1
20260506033544 65 274 2.0 9.0 0.00 0.00 0.00 61 1014.0
20260506033106 64 157 1.0 8.0 0.00 0.00 0.00 61 1013.9
20260506032544 64 40 0.0 3.0 0.00 0.00 0.00 60 1013.9
20260506032047 64 266 0.0 3.0 0.00 0.00 0.00 61 1013.9
20260506031553 64 41 0.0 3.0 0.00 0.00 0.00 61 1014.0
20260506031045 64 0 0.0 2.0 0.00 0.00 0.00 61 1014.2
20260506030545 64 82 0.0 2.0 0.00 0.00 0.00 61 1014.3
20260506025544 64 91 0.0 2.0 0.00 0.00 0.00 61 1014.3
20260506025048 64 163 0.0 2.0 0.00 0.00 0.00 60 1014.3
20260506024608 64 0 0.0 2.0 0.00 0.00 0.00 61 1014.3
20260506024045 64 192 0.0 2.0 0.00 0.00 0.00 61 1014.4
20260506023544 64 0 0.0 2.0 0.00 0.00 0.00 61 1014.5
20260506023102 64 63 0.0 2.0 0.00 0.00 0.00 61 1014.7
20260506022545 64 0 0.0 2.0 0.00 0.00 0.00 61 1014.6
20260506022045 64 63 0.0 2.0 0.00 0.00 0.00 61 1014.6
20260506021557 64 38 0.0 1.0 0.00 0.00 0.00 61 1014.6
20260506021045 64 0 0.0 1.0 0.00 0.00 0.00 60 1014.6
20260506020544 65 0 0.0 1.0 0.00 0.00 0.00 60 1014.6
20260506020055 64 38 0.0 1.0 0.00 0.00 0.00 60 1014.5
20260506015548 65 0 0.0 2.0 0.00 0.00 0.00 59 1014.4
20260506015047 65 0 0.0 2.0 0.00 0.00 0.00 59 1014.3
20260506014559 65 0 0.0 1.0 0.00 0.00 0.00 58 1014.3
20260506014047 66 89 0.0 0.0 0.00 0.00 0.00 57 1014.3
20260506013545 66 0 0.0 2.0 0.00 0.00 0.00 57 1014.2
20260506013105 67 0 0.0 2.0 0.00 0.00 0.00 56 1014.2
20260506012545 67 0 0.0 1.0 0.00 0.00 0.00 55 1014.2
20260506012045 67 0 0.0 1.0 0.00 0.00 0.00 54 1014.2
20260506011621 68 0 0.0 1.0 0.00 0.00 0.00 54 1014.2
20260506011047 68 0 0.0 1.0 0.00 0.00 0.00 53 1014.3
20260506010545 68 0 0.0 6.0 0.00 0.00 0.00 52 1014.1
20260506010056 69 76 0.0 6.0 0.00 0.00 0.00 51 1014.0
20260506005548 69 309 0.0 6.0 0.00 0.00 0.00 51 1013.9
20260506005050 69 306 1.0 5.0 0.00 0.00 0.00 50 1014.0
20260506004556 70 42 1.0 3.0 0.00 0.00 0.00 50 1013.9
20260506004048 70 85 1.0 3.0 0.00 0.00 0.00 49 1013.9
20260506003548 70 90 0.0 3.0 0.00 0.00 0.00 49 1013.8
20260506003051 70 116 0.0 3.0 0.00 0.00 0.00 48 1013.8
20260506002547 71 0 0.0 5.0 0.00 0.00 0.00 47 1013.8
20260506002045 71 76 0.0 5.0 0.00 0.00 0.00 47 1013.7
20260506001601 72 109 1.0 5.0 0.00 0.00 0.00 46 1013.7
20260506001046 72 0 1.0 4.0 0.00 0.00 0.00 45 1013.7
20260506000546 72 54 0.0 3.0 0.00 0.00 0.00 45 1013.8
20260506000059 73 19 1.0 6.0 0.00 0.00 0.00 44 1013.6
20260505235547 73 0 1.0 6.0 0.00 0.00 0.00 43 1013.7
20260505235047 73 97 3.0 6.0 0.00 0.00 0.00 43 1013.7
20260505234556 74 90 2.0 8.0 0.00 0.00 0.00 42 1013.5
20260505234048 74 113 2.0 8.0 0.00 0.00 0.00 42 1013.5
20260505233546 74 65 0.0 8.0 0.00 0.00 0.00 41 1013.5
20260505233056 74 86 1.0 8.0 0.00 0.00 0.00 41 1013.4
20260505232548 75 118 1.0 9.0 0.00 0.00 0.00 40 1013.3
20260505232045 75 53 3.0 9.0 0.00 0.00 0.00 40 1013.3
20260505231600 75 115 3.0 12.0 0.00 0.00 0.00 40 1013.3
20260505231047 75 181 4.0 12.0 0.00 0.00 0.00 39 1013.2
20260505230548 76 98 4.0 12.0 0.00 0.00 0.00 38 1013.0
20260505225609 76 342 4.0 13.0 0.00 0.00 0.00 37 1013.2
20260505225046 77 62 4.0 12.0 0.00 0.00 0.00 37 1013.3
20260505224551 77 10 3.0 11.0 0.00 0.00 0.00 36 1013.2
20260505224045 78 53 5.0 14.0 0.00 0.00 0.00 36 1013.2
20260505223546 78 329 4.0 14.0 0.00 0.00 0.00 36 1013.3
20260505223050 78 95 5.0 16.0 0.00 0.00 0.00 36 1013.3
20260505222545 78 78 5.0 16.0 0.00 0.00 0.00 36 1013.3
20260505222045 78 132 5.0 16.0 0.00 0.00 0.00 36 1013.3
20260505221603 78 93 5.0 16.0 0.00 0.00 0.00 35 1013.3
20260505221047 78 83 3.0 15.0 0.00 0.00 0.00 36 1013.4
20260505220548 77 39 5.0 15.0 0.00 0.00 0.00 37 1013.5
20260505220101 77 311 6.0 15.0 0.00 0.00 0.00 36 1013.7
20260505215548 77 88 5.0 15.0 0.00 0.00 0.00 38 1013.7
20260505215048 77 312 5.0 15.0 0.00 0.00 0.00 38 1013.6
20260505214554 77 75 5.0 14.0 0.00 0.00 0.00 37 1013.7
20260505214045 78 118 7.0 14.0 0.00 0.00 0.00 37 1013.6
20260505213544 79 76 3.0 12.0 0.00 0.00 0.00 37 1013.7
20260505213054 79 105 4.0 12.0 0.00 0.00 0.00 37 1013.7
20260505212545 79 346 5.0 15.0 0.00 0.00 0.00 36 1013.6
20260505212047 79 106 8.0 15.0 0.00 0.00 0.00 35 1013.5
20260505211554 80 59 3.0 12.0 0.00 0.00 0.00 36 1013.7
20260505211046 79 304 5.0 18.0 0.00 0.00 0.00 36 1013.7
20260505210547 79 220 6.0 18.0 0.00 0.00 0.00 36 1013.9
20260505210055 79 97 5.0 14.0 0.00 0.00 0.00 35 1013.9
20260505205547 79 338 4.0 16.0 0.00 0.00 0.00 35 1013.9
20260505205048 79 191 8.0 18.0 0.00 0.00 0.00 35 1013.7
20260505204600 80 100 5.0 18.0 0.00 0.00 0.00 36 1013.8
20260505204049 80 86 5.0 18.0 0.00 0.00 0.00 35 1013.6
20260505203549 79 249 7.0 18.0 0.00 0.00 0.00 36 1013.7
20260505203052 79 340 8.0 18.0 0.00 0.00 0.00 35 1013.8
20260505202548 79 360 6.0 17.0 0.00 0.00 0.00 35 1013.7
20260505202047 79 133 5.0 17.0 0.00 0.00 0.00 35 1013.8
20260505201551 79 72 5.0 19.0 0.00 0.00 0.00 35 1013.9
20260505201048 79 66 8.0 19.0 0.00 0.00 0.00 35 1014.0
20260505200546 79 283 6.0 16.0 0.00 0.00 0.00 35 1014.1
20260505200051 79 344 5.0 16.0 0.00 0.00 0.00 34 1014.1
20260505195546 80 90 7.0 15.0 0.00 0.00 0.00 32 1014.2
20260505195046 80 100 4.0 14.0 0.00 0.00 0.00 33 1014.3
20260505194602 79 108 5.0 17.0 0.00 0.00 0.00 35 1014.4
20260505194048 79 53 5.0 17.0 0.00 0.00 0.00 34 1014.5
20260505193546 79 107 5.0 17.0 0.00 0.00 0.00 34 1014.4
20260505193058 80 21 7.0 13.0 0.00 0.00 0.00 34 1014.6
20260505192545 80 129 4.0 16.0 0.00 0.00 0.00 34 1014.5
20260505192045 80 281 4.0 16.0 0.00 0.00 0.00 34 1014.6
20260505191554 79 37 7.0 16.0 0.00 0.00 0.00 34 1014.6
20260505191046 79 116 5.0 14.0 0.00 0.00 0.00 36 1014.7
20260505190547 79 104 5.0 15.0 0.00 0.00 0.00 37 1015.0
20260505190056 78 74 4.0 19.0 0.00 0.00 0.00 37 1015.1
20260505185550 78 26 6.0 19.0 0.00 0.00 0.00 36 1015.1
20260505185047 79 60 5.0 19.0 0.00 0.00 0.00 36 1015.3
20260505184553 79 85 7.0 16.0 0.00 0.00 0.00 36 1015.4
20260505184046 79 175 4.0 12.0 0.00 0.00 0.00 36 1015.3
20260505183550 79 281 7.0 13.0 0.00 0.00 0.00 37 1015.5
20260505183054 80 234 6.0 13.0 0.00 0.00 0.00 36 1015.6
20260505182545 79 0 3.0 13.0 0.00 0.00 0.00 38 1015.6
20260505182045 78 79 4.0 13.0 0.00 0.00 0.00 39 1015.7
20260505181547 78 51 3.0 14.0 0.00 0.00 0.00 39 1015.7
20260505181046 77 49 5.0 14.0 0.00 0.00 0.00 39 1015.7
20260505180548 77 308 6.0 14.0 0.00 0.00 0.00 38 1015.7
20260505180055 78 115 6.0 12.0 0.00 0.00 0.00 38 1015.9
20260505175545 78 140 4.0 11.0 0.00 0.00 0.00 39 1015.8
20260505175048 78 309 3.0 12.0 0.00 0.00 0.00 40 1015.7
20260505174553 78 134 4.0 13.0 0.00 0.00 0.00 39 1015.9
20260505174048 77 37 6.0 13.0 0.00 0.00 0.00 40 1015.9
20260505173546 78 51 4.0 13.0 0.00 0.00 0.00 40 1015.9
20260505173055 77 179 4.0 12.0 0.00 0.00 0.00 42 1015.8
20260505172546 77 24 2.0 16.0 0.00 0.00 0.00 41 1016.0
20260505172046 77 96 5.0 16.0 0.00 0.00 0.00 42 1016.2
20260505171557 77 71 4.0 12.0 0.00 0.00 0.00 40 1016.1
20260505171047 77 32 4.0 14.0 0.00 0.00 0.00 40 1016.1
20260505170547 77 82 4.0 14.0 0.00 0.00 0.00 40 1016.2
20260505170059 77 91 7.0 13.0 0.00 0.00 0.00 40 1016.1
20260505165545 78 106 5.0 12.0 0.00 0.00 0.00 40 1016.2
20260505165047 77 103 4.0 15.0 0.00 0.00 0.00 40 1016.3
20260505164600 77 34 4.0 15.0 0.00 0.00 0.00 40 1016.3
20260505164048 77 64 5.0 12.0 0.00 0.00 0.00 40 1016.3
20260505163548 77 53 5.0 12.0 0.00 0.00 0.00 42 1016.4
20260505163052 76 38 4.0 13.0 0.00 0.00 0.00 41 1016.3
20260505162548 76 126 3.0 13.0 0.00 0.00 0.00 42 1016.5
20260505162046 77 325 6.0 13.0 0.00 0.00 0.00 40 1016.6
20260505161557 77 151 3.0 11.0 0.00 0.00 0.00 43 1016.5
20260505161047 76 9 4.0 12.0 0.00 0.00 0.00 43 1016.7
20260505160550 76 87 5.0 12.0 0.00 0.00 0.00 45 1016.6
20260505153110 74 165 2.0 11.0 0.00 0.00 0.00 50 1016.8
20260505152550 74 316 4.0 11.0 0.00 0.00 0.00 49 1016.8
20260505152048 74 113 2.0 11.0 0.00 0.00 0.00 49 1016.8
20260505151553 73 320 5.0 11.0 0.00 0.00 0.00 52 1016.9
20260505151048 72 107 5.0 11.0 0.00 0.00 0.00 51 1016.9
20260505150548 73 55 3.0 11.0 0.00 0.00 0.00 50 1016.9
20260505140545 69 182 1.0 6.0 0.00 0.00 0.00 59 1016.8
20260505124553 61 129 2.0 7.0 0.00 0.00 0.00 73 1016.6
20260505124046 61 71 3.0 7.0 0.00 0.00 0.00 73 1016.5
20260505123551 61 98 2.0 7.0 0.00 0.00 0.00 74 1016.5
20260505123057 60 52 2.0 5.0 0.00 0.00 0.00 74 1016.5
20260505122549 60 107 2.0 5.0 0.00 0.00 0.00 74 1016.5
20260505122048 59 86 2.0 6.0 0.00 0.00 0.00 75 1016.5
20260505121546 59 34 1.0 6.0 0.00 0.00 0.00 76 1016.4
20260505121047 58 341 1.0 3.0 0.00 0.00 0.00 75 1016.5
20260505120548 58 347 0.0 0.0 0.00 0.00 0.00 76 1016.6
20260505120104 58 0 0.0 2.0 0.00 0.00 0.00 77 1016.5
20260505115550 57 0 0.0 2.0 0.00 0.00 0.00 78 1016.5
20260505115047 56 0 0.0 1.0 0.00 0.00 0.00 78 1016.5
20260505114552 56 0 0.0 1.0 0.00 0.00 0.00 78 1016.5
20260505114047 56 0 0.0 1.0 0.00 0.00 0.00 79 1016.5
20260505113546 55 113 0.0 0.0 0.00 0.00 0.00 81 1016.3
20260505113114 53 0 0.0 0.0 0.00 0.00 0.00 84 1016.3
20260505112545 52 0 0.0 2.0 0.00 0.00 0.00 86 1016.2
20260505112047 50 0 0.0 2.0 0.00 0.00 0.00 88 1016.2
20260505111552 49 0 0.0 2.0 0.00 0.00 0.00 89 1016.1
20260505111048 49 0 0.0 0.0 0.00 0.00 0.00 89 1016.1
20260505110546 48 0 0.0 0.0 0.00 0.00 0.00 89 1016.1
20260505102048 48 0 0.0 0.0 0.00 0.00 0.00 86 1016.1
20260505101547 49 0 0.0 0.0 0.00 0.00 0.00 87 1016.0
20260505101048 49 0 0.0 0.0 0.00 0.00 0.00 87 1016.0
20260505100547 49 0 0.0 0.0 0.00 0.00 0.00 87 1016.0
20260505100055 49 0 0.0 0.0 0.00 0.00 0.00 86 1016.0
20260505095548 49 0 0.0 0.0 0.00 0.00 0.00 85 1015.9
20260505095045 49 0 0.0 0.0 0.00 0.00 0.00 84 1015.9
20260505094551 49 0 0.0 0.0 0.00 0.00 0.00 85 1015.9
20260505094048 49 0 0.0 1.0 0.00 0.00 0.00 85 1015.9
20260505093545 49 0 0.0 1.0 0.00 0.00 0.00 85 1015.8
20260505093059 49 0 0.0 0.0 0.00 0.00 0.00 85 1015.7
20260505092548 49 0 0.0 0.0 0.00 0.00 0.00 85 1015.6
20260505092048 49 0 0.0 0.0 0.00 0.00 0.00 84 1015.7
20260505091553 49 0 0.0 0.0 0.00 0.00 0.00 83 1015.7
20260505091047 50 0 0.0 0.0 0.00 0.00 0.00 82 1015.6
20260505090548 50 0 0.0 0.0 0.00 0.00 0.00 81 1015.6
20260505090054 51 0 0.0 1.0 0.00 0.00 0.00 80 1015.6
20260505085547 51 0 0.0 1.0 0.00 0.00 0.00 80 1015.5
20260505085049 52 99 0.0 2.0 0.00 0.00 0.00 79 1015.5
20260505084556 52 96 0.0 3.0 0.00 0.00 0.00 79 1015.4
20260505084050 52 0 0.0 3.0 0.00 0.00 0.00 80 1015.2
20260505083545 52 0 0.0 1.0 0.00 0.00 0.00 80 1015.3
20260505083055 51 0 0.0 1.0 0.00 0.00 0.00 80 1015.3
20260505082547 51 97 0.0 1.0 0.00 0.00 0.00 80 1015.2
20260505082048 51 0 0.0 0.0 0.00 0.00 0.00 80 1015.2
20260505081554 51 0 0.0 0.0 0.00 0.00 0.00 79 1015.1
20260505081047 51 0 0.0 0.0 0.00 0.00 0.00 79 1015.0
20260505080546 52 0 0.0 0.0 0.00 0.00 0.00 78 1015.1
20260505080103 52 0 0.0 0.0 0.00 0.00 0.00 77 1015.0
20260505075548 53 0 0.0 0.0 0.00 0.00 0.00 76 1015.0
20260505075045 53 0 0.0 0.0 0.00 0.00 0.00 75 1015.0
20260505074555 53 0 0.0 0.0 0.00 0.00 0.00 74 1015.0
20260505074047 54 0 0.0 1.0 0.00 0.00 0.00 73 1015.0
20260505073547 54 0 0.0 2.0 0.00 0.00 0.00 72 1015.1
20260505073110 55 0 0.0 2.0 0.00 0.00 0.00 72 1015.0
20260505072546 55 96 0.0 2.0 0.00 0.00 0.00 71 1014.9
20260505072047 55 94 0.0 2.0 0.00 0.00 0.00 71 1014.7
20260505071555 55 0 0.0 2.0 0.00 0.00 0.00 70 1014.9
20260505071045 56 0 0.0 2.0 0.00 0.00 0.00 70 1014.9
20260505070546 56 0 0.0 2.0 0.00 0.00 0.00 69 1014.9
20260505070055 56 0 0.0 3.0 0.00 0.00 0.00 68 1014.9
20260505065546 56 39 0.0 3.0 0.00 0.00 0.00 68 1014.9
20260505065045 56 0 0.0 4.0 0.00 0.00 0.00 68 1014.9
20260505064600 56 44 0.0 4.0 0.00 0.00 0.00 67 1014.9
20260505064047 56 0 0.0 4.0 0.00 0.00 0.00 66 1014.9
20260505063547 56 0 0.0 3.0 0.00 0.00 0.00 66 1014.9
20260505063101 56 0 0.0 3.0 0.00 0.00 0.00 65 1015.0
20260505062548 56 0 0.0 3.0 0.00 0.00 0.00 65 1014.9
20260505062044 57 130 0.0 3.0 0.00 0.00 0.00 64 1014.9
20260505061557 57 0 0.0 2.0 0.00 0.00 0.00 63 1014.9
20260505061050 57 94 0.0 2.0 0.00 0.00 0.00 63 1014.9
20260505060547 57 97 0.0 2.0 0.00 0.00 0.00 62 1014.8
20260505060100 57 97 0.0 2.0 0.00 0.00 0.00 61 1014.9
20260505055551 58 97 0.0 3.0 0.00 0.00 0.00 61 1014.7
20260505055049 58 0 0.0 4.0 0.00 0.00 0.00 60 1014.7
20260505054555 58 81 1.0 4.0 0.00 0.00 0.00 60 1014.8
20260505054048 57 57 0.0 3.0 0.00 0.00 0.00 60 1014.8
20260505053545 57 283 0.0 3.0 0.00 0.00 0.00 60 1014.7
20260505053114 57 0 0.0 3.0 0.00 0.00 0.00 59 1014.9
20260505052547 58 74 0.0 3.0 0.00 0.00 0.00 59 1014.8
20260505052047 57 0 1.0 3.0 0.00 0.00 0.00 59 1014.9
20260505051553 57 83 0.0 3.0 0.00 0.00 0.00 59 1014.9
20260505051046 57 67 0.0 3.0 0.00 0.00 0.00 60 1015.0
20260505050547 57 0 0.0 3.0 0.00 0.00 0.00 60 1014.9
20260505050104 57 0 0.0 1.0 0.00 0.00 0.00 58 1014.9